Вернуться в каталог

STARLINK-32871

АктивенСвязьVLEO
NORAD 62924·PAYLOAD·🇺🇸 United States

Запущен Feb 8, 2025 с Cape Canaveral Space Force Station

Loading…

Ближайшие Пролёты (ближайшие 24 часа)

TLE

СвежийSource: CelesTrak SupGP

Эпоха: Sep 15, 2026, 02:28 UTC

1 62924C 25027T   26258.10326389  .00064189  00000+0  23251-2 0  2584
2 62924  43.0025 139.1658 0001491 276.3021 334.1513 15.27544295    13

Отслеживайте STARLINK-32871 в реальном времени с AllMySat

Download on the App Store